Find SS 2

NORAD ID: 10544 Int'l Des: 1977-112 Owner: NRO/NRL Country: US operational
LEO

リアルタイム位置

3D地球を読み込み中...

SS 2について

説明を読み込み中...

次回通過

Passes for default location (London). Set your location on the main map for personalized predictions.

高度履歴

Loading altitude history...

軌道要素

1 10544U 77112E 26120.37707128 .00000247 00000-0 10131-3 0 9990
2 10544 63.3358 117.5262 0516401 161.7229 200.3172 13.91223645345747
Epoch: Apr 30, 2026 • Age: 10 hours

現在のステータス

高度 1307.0 km
速度 7.01 km/s
衛星直下点 -19.76°S, 42°W
打ち上げ日 Dec 8, 1977
運用期間 48.3 years
タイプ other

技術仕様

分類 Payload
質量 200.00 kg
乾燥質量 200.00 kg
総質量 200.00 kg
長さ 0.90 m
直径 0.40 m
スパン 10.00 m
形状 Box + Ant
製造者 NRL
バスタイプ NOSS SSU
フェーズステータス In Orbit
所有者/国 NRO/NRL/US

Most Searched